Location: Conflandey
(47.7287°N, 6.0456°E)
Time: 03:52:37
(UTC+00:00)

Cosmos 2360 Rocket - Pass Details

Date: 24 October 2021
Orbit: 832 x 846 km, 71.0° (Epoch: 28 November)

Event Time Altitude Azimuth Distance (km) Brightness Sun altitude
Rises 18:13:23 0° 194° (SSW) 3,375 5.5 -17.8°
Reaches altitude 10° 18:15:50 10° 191° (S) 2,447 4.7 -18.2°
Maximum altitude 18:21:21 61° 112° (ESE) 951 2.1 -19.2°
Enters shadow 18:26:06 14° 35° (NE) 2,166 4.0 -20.0°
